{"data":{"norad_id":62500,"intl_designator":"2025-003P","name":"STARLINK-32685","alt_names":[],"object_type":"PAYLOAD","status":"ACTIVE","operator":null,"country":"US","launch_date":"2025-01-06","launch_site_code":"AFETR","launch_vehicle":null,"mission":null,"orbit_class":"UNKNOWN","rcs_meters":null,"size_class":null,"mass_kg":null,"dimensions":null,"purposes":["comms"],"wikipedia_slug":null,"has_3d_model":false,"image_url":null,"decayed_at":null,"tle_current":{"epoch":"2026-09-21T16:27:09.282240Z","epoch_age_seconds":72074,"freshness":"FRESH","line1":"1 62500U 25003P   26264.68552410  .00007129  00000+0  26835-3 0  9999","line2":"2 62500  42.9991 262.3454 0000496 256.5089 103.5707 15.27578208 96596","mean_motion":15.27578208,"eccentricity":4.96e-5,"inclination_deg":42.9991,"raan_deg":262.3454,"arg_perigee_deg":256.5089,"mean_anomaly_deg":103.5707,"bstar":0.00026835,"rev_number":9659,"period_min":94.266859297851,"perigee_km":482.71414684105,"apogee_km":483.39477703408,"semimajor_km":6861.1914619376,"source":"CELESTRAK","updated_at":"2026-09-22T09:00:49.618876Z"}}}